FW4251 Weather Reports


Display with metric or nautical units.
time (UTC)temp
F
wind
direction
speed
MPH
gust
MPH
rain 1hr
in
rain 24hr
in
rain mn
in
humidity
%
barometer
mb
20260502152009 54 92 3.0 9.0 0.00 0.00 0.00 81 1012.4
20260502151506 53 85 2.0 9.0 0.00 0.00 0.00 84 1012.5
20260502151005 53 84 3.0 7.0 0.00 0.00 0.00 80 1012.6
20260502150504 53 98 3.0 7.0 0.00 0.00 0.00 84 1012.5
20260502130552 46 360 2.0 8.0 0.00 0.00 0.00 91 1012.3
20260502123549 47 360 1.0 6.0 0.00 0.00 0.00 94 1012.2
20260502123048 47 360 2.0 4.0 0.00 0.00 0.00 94 1012.2
20260502122548 47 360 1.0 3.0 0.00 0.00 0.00 94 1012.2
20260502122047 47 360 0.0 4.0 0.00 0.00 0.00 95 1012.1
20260502121547 47 360 2.0 4.0 0.00 0.00 0.00 95 1012.1
20260502121047 47 360 1.0 3.0 0.00 0.00 0.00 95 1012.2
20260502120546 47 360 1.0 4.0 0.00 0.00 0.00 95 1012.1
20260502115547 47 360 2.0 4.0 0.00 0.00 0.00 94 1012.0
20260502115147 47 360 0.0 3.0 0.00 0.00 0.00 95 1012.1
20260502114545 47 360 0.0 4.0 0.00 0.00 0.00 95 1012.0
20260502114046 47 360 1.0 4.0 0.00 0.00 0.00 95 1012.1
20260502113545 47 360 1.0 4.0 0.00 0.00 0.00 95 1012.1
20260502113048 47 360 1.0 3.0 0.00 0.00 0.00 95 1012.0
20260502112545 46 360 0.0 2.0 0.00 0.00 0.00 95 1012.0
20260502112043 46 360 0.0 3.0 0.00 0.00 0.00 94 1011.9
20260502111543 46 360 1.0 4.0 0.00 0.00 0.00 94 1011.9
20260502111043 46 360 1.0 4.0 0.00 0.00 0.00 94 1011.8
20260502110543 46 360 1.0 4.0 0.00 0.00 0.00 94 1011.8
20260502110047 46 360 1.0 6.0 0.00 0.00 0.00 94 1011.8
20260502105542 46 360 3.0 5.0 0.00 0.00 0.00 94 1011.8
20260502105043 46 360 1.0 4.0 0.00 0.00 0.00 94 1011.7
20260502104544 46 360 1.0 4.0 0.00 0.00 0.00 94 1011.8
20260502104041 46 360 1.0 2.0 0.00 0.00 0.00 94 1011.8
20260502103541 46 360 1.0 3.0 0.00 0.00 0.00 94 1011.6
20260502103041 46 360 1.0 3.0 0.00 0.00 0.00 94 1011.7
20260502102541 46 360 1.0 3.0 0.00 0.00 0.00 94 1011.5
20260502102041 45 360 2.0 3.0 0.00 0.00 0.00 94 1011.4
20260502101551 45 360 1.0 2.0 0.00 0.00 0.00 94 1011.5
20260502101040 45 360 0.0 2.0 0.00 0.00 0.00 94 1011.3
20260502100540 46 360 0.0 2.0 0.00 0.00 0.00 94 1011.4
20260502091035 46 360 1.0 4.0 0.00 0.00 0.00 94 1011.2
20260502090537 46 360 1.0 4.0 0.00 0.00 0.00 94 1011.2
20260502071523 46 360 3.0 5.0 0.00 0.00 0.00 93 1011.8
20260502071023 46 360 3.0 8.0 0.00 0.00 0.00 93 1011.7
20260502070523 46 360 3.0 10.0 0.00 0.00 0.00 93 1011.9
20260502070037 46 360 4.0 10.0 0.00 0.00 0.00 93 1012.0
20260502065522 46 360 4.0 8.0 0.00 0.00 0.00 93 1012.1
20260502065024 46 360 3.0 8.0 0.00 0.00 0.00 93 1012.0
20260502064520 46 360 4.0 6.0 0.00 0.00 0.00 93 1012.0
20260502064019 46 360 2.0 5.0 0.00 0.00 0.00 93 1011.8
20260502063520 47 360 2.0 4.0 0.00 0.00 0.00 92 1011.8
20260502063023 47 360 0.0 6.0 0.00 0.00 0.00 92 1011.9
20260502062518 47 360 1.0 6.0 0.00 0.00 0.00 92 1012.0
20260502062016 47 360 0.0 3.0 0.00 0.00 0.00 92 1012.0
20260502061517 47 360 1.0 3.0 0.00 0.00 0.00 92 1012.0
20260502061016 47 360 1.0 3.0 0.00 0.00 0.00 92 1011.8
20260502060515 47 360 0.0 3.0 0.00 0.00 0.00 92 1011.9
20260502060027 47 360 1.0 3.0 0.00 0.00 0.00 92 1011.9
20260502055515 47 360 1.0 3.0 0.00 0.00 0.00 92 1011.9
20260502055018 47 360 0.0 3.0 0.00 0.00 0.00 92 1011.9
20260502054524 47 360 0.0 3.0 0.00 0.00 0.00 92 1012.0
20260502054013 47 360 1.0 3.0 0.00 0.00 0.00 91 1012.1
20260502053513 47 360 0.0 2.0 0.00 0.00 0.00 91 1012.0
20260502053013 48 360 0.0 2.0 0.00 0.00 0.00 91 1011.8
20260502052518 48 360 1.0 2.0 0.00 0.00 0.00 91 1011.8
20260502052012 48 360 0.0 1.0 0.00 0.00 0.00 91 1011.7
20260502051512 48 360 0.0 1.0 0.00 0.00 0.00 90 1011.9
20260502051017 48 360 0.0 0.0 0.00 0.00 0.00 90 1011.9
20260502050510 48 360 0.0 1.0 0.00 0.00 0.00 90 1011.9
20260502050017 47 360 0.0 2.0 0.00 0.00 0.00 89 1012.0
20260502045510 48 360 0.0 2.0 0.00 0.00 0.00 88 1012.0
20260502045014 48 360 0.0 0.0 0.00 0.00 0.00 88 1012.0
20260502044509 48 360 0.0 3.0 0.00 0.00 0.00 88 1012.0
20260502044008 48 360 0.0 3.0 0.00 0.00 0.00 88 1012.0
20260502043513 48 360 1.0 3.0 0.00 0.00 0.00 88 1012.0
20260502043007 48 360 0.0 2.0 0.00 0.00 0.00 88 1011.9
20260502042506 48 360 0.0 2.0 0.00 0.00 0.00 88 1011.9
20260502042005 48 360 0.0 1.0 0.00 0.00 0.00 88 1011.8
20260502041512 48 360 0.0 2.0 0.00 0.00 0.00 87 1011.8
20260502041004 48 360 0.0 3.0 0.00 0.00 0.00 87 1011.8
20260502040503 48 360 1.0 3.0 0.00 0.00 0.00 87 1011.9
20260502040004 48 360 1.0 2.0 0.00 0.00 0.00 86 1011.8
20260502035502 49 360 0.0 2.0 0.00 0.00 0.00 86 1011.8
20260502035002 48 360 0.0 2.0 0.00 0.00 0.00 86 1011.8
20260502034501 48 360 0.0 2.0 0.00 0.00 0.00 86 1011.9
20260502034002 48 360 0.0 4.0 0.00 0.00 0.00 86 1011.9
20260502033503 48 360 1.0 4.0 0.00 0.00 0.00 86 1011.9
20260502033003 48 360 1.0 3.0 0.00 0.00 0.00 85 1011.8
20260502032502 48 360 0.0 1.0 0.00 0.00 0.00 86 1011.7
20260502032100 49 360 0.0 1.0 0.00 0.00 0.00 85 1011.7
20260502031602 49 360 0.0 1.0 0.00 0.00 0.00 85 1011.7
20260502031102 49 360 0.0 1.0 0.00 0.00 0.00 84 1011.8
20260502030559 49 360 0.0 1.0 0.00 0.00 0.00 82 1011.8
20260502030118 50 360 0.0 1.0 0.00 0.00 0.00 80 1011.8
20260502025558 50 320 0.0 2.0 0.00 0.00 0.00 77 1011.9
20260502025058 51 323 0.0 2.0 0.00 0.00 0.00 73 1011.8
20260502024606 51 323 0.0 1.0 0.00 0.00 0.00 71 1011.6
20260502024058 51 360 0.0 1.0 0.00 0.00 0.00 68 1011.6
20260502023558 51 323 0.0 2.0 0.00 0.00 0.00 67 1011.4
20260502023135 51 323 0.0 1.0 0.00 0.00 0.00 68 1011.5
20260502022603 51 323 0.0 0.0 0.00 0.00 0.00 66 1011.6
20260502022056 52 323 0.0 0.0 0.00 0.00 0.00 66 1011.5
20260502021556 52 323 0.0 0.0 0.00 0.00 0.00 67 1011.4
20260502021056 52 323 0.0 0.0 0.00 0.00 0.00 66 1011.5
20260502020556 52 323 0.0 0.0 0.00 0.00 0.00 65 1011.5
20260502020103 52 323 0.0 2.0 0.00 0.00 0.00 64 1011.5
20260502015557 52 323 0.0 2.0 0.00 0.00 0.00 63 1011.6
20260502015056 52 323 0.0 0.0 0.00 0.00 0.00 65 1011.5
20260502014606 52 323 0.0 0.0 0.00 0.00 0.00 66 1011.5
20260502014056 53 323 0.0 1.0 0.00 0.00 0.00 65 1011.5
20260502013556 53 323 0.0 1.0 0.00 0.00 0.00 62 1011.4
20260502013101 53 323 0.0 2.0 0.00 0.00 0.00 62 1011.5
20260502012556 53 323 0.0 2.0 0.00 0.00 0.00 61 1011.5
20260502012056 53 323 0.0 2.0 0.00 0.00 0.00 62 1011.5
20260502011607 53 323 0.0 2.0 0.00 0.00 0.00 63 1011.4
20260502011054 53 323 0.0 2.0 0.00 0.00 0.00 63 1011.4
20260502010554 53 323 0.0 2.0 0.00 0.00 0.00 61 1011.4
20260502010055 53 323 1.0 2.0 0.00 0.00 0.00 61 1011.3
20260502005555 53 323 0.0 2.0 0.00 0.00 0.00 60 1011.4
20260502005057 54 323 0.0 5.0 0.00 0.00 0.00 58 1011.3
20260502004555 54 323 0.0 4.0 0.00 0.00 0.00 57 1011.2
20260502004055 55 323 1.0 4.0 0.00 0.00 0.00 56 1011.1
20260502003555 54 323 0.0 3.0 0.00 0.00 0.00 56 1011.1
20260502003054 55 323 0.0 4.0 0.00 0.00 0.00 56 1011.1
20260502002556 55 323 1.0 4.0 0.00 0.00 0.00 56 1011.0
20260502002053 55 324 1.0 6.0 0.00 0.00 0.00 55 1011.0
20260502001600 56 324 3.0 6.0 0.00 0.00 0.00 54 1010.8
20260502001052 56 311 2.0 6.0 0.00 0.00 0.00 54 1010.9
20260502000553 56 305 1.0 9.0 0.00 0.00 0.00 55 1010.8
20260501235553 56 301 2.0 6.0 0.00 0.00 0.00 53 1010.9
20260501235052 56 300 2.0 5.0 0.00 0.00 0.00 53 1010.8
20260501234552 56 312 1.0 9.0 0.00 0.00 0.00 53 1010.9
20260501234052 57 331 3.0 9.0 0.00 0.00 0.00 53 1010.9
20260501233552 57 253 2.0 8.0 0.00 0.00 0.00 52 1010.8
20260501233109 57 250 2.0 8.0 0.00 0.00 0.00 52 1010.8
20260501232552 57 340 2.0 9.0 0.00 0.00 0.00 51 1010.7
20260501232052 57 276 3.0 10.0 0.00 0.00 0.00 50 1010.7
20260501231613 58 331 3.0 10.0 0.00 0.00 0.00 50 1010.6
20260501231051 58 281 4.0 8.0 0.00 0.00 0.00 49 1010.5
20260501230551 58 287 3.0 10.0 0.00 0.00 0.00 48 1010.4
20260501230116 58 317 4.0 10.0 0.00 0.00 0.00 47 1010.2
20260501225552 59 338 4.0 9.0 0.00 0.00 0.00 46 1010.1
20260501225051 59 244 3.0 10.0 0.00 0.00 0.00 46 1010.0
20260501224556 59 276 6.0 10.0 0.00 0.00 0.00 44 1010.1
20260501224050 60 279 4.0 9.0 0.00 0.00 0.00 44 1010.0
20260501223550 60 327 3.0 9.0 0.00 0.00 0.00 43 1009.9
20260501223054 60 309 3.0 8.0 0.00 0.00 0.00 43 1009.9
20260501222550 60 250 3.0 9.0 0.00 0.00 0.00 42 1009.9
20260501222050 60 253 3.0 9.0 0.00 0.00 0.00 43 1009.9
20260501221559 60 309 2.0 11.0 0.00 0.00 0.00 42 1009.8
20260501221049 60 173 4.0 12.0 0.00 0.00 0.00 41 1009.8
20260501220549 61 221 7.0 17.0 0.00 0.00 0.00 41 1009.7
20260501220055 61 230 8.0 17.0 0.00 0.00 0.00 40 1009.8
20260501215550 61 275 3.0 10.0 0.00 0.00 0.00 43 1009.7
20260501215048 61 261 5.0 10.0 0.00 0.00 0.00 43 1009.7
20260501214549 62 159 2.0 11.0 0.00 0.00 0.00 42 1009.6
20260501214048 62 260 4.0 11.0 0.00 0.00 0.00 40 1009.4
20260501213548 61 265 5.0 11.0 0.00 0.00 0.00 42 1009.4
20260501213050 62 194 4.0 7.0 0.00 0.00 0.00 43 1009.3
20260501212548 62 254 1.0 8.0 0.00 0.00 0.00 41 1009.3
20260501212051 62 237 2.0 8.0 0.00 0.00 0.00 41 1009.3
20260501211548 62 238 1.0 8.0 0.00 0.00 0.00 43 1009.4
20260501211047 62 238 3.0 8.0 0.00 0.00 0.00 42 1009.3
20260501210547 62 183 2.0 5.0 0.00 0.00 0.00 40 1009.4
20260501210047 62 322 1.0 4.0 0.00 0.00 0.00 44 1009.3
20260501205550 62 219 0.0 7.0 0.00 0.00 0.00 39 1009.2
20260501205048 63 219 2.0 12.0 0.00 0.00 0.00 37 1009.3
20260501204547 63 236 5.0 11.0 0.00 0.00 0.00 39 1009.3
20260501204049 64 246 2.0 7.0 0.00 0.00 0.00 37 1009.2
20260501203546 63 251 2.0 5.0 0.00 0.00 0.00 35 1009.3
20260501203046 62 240 1.0 5.0 0.00 0.00 0.00 37 1009.3
20260501202546 62 287 2.0 7.0 0.00 0.00 0.00 36 1009.3
20260501202045 63 257 3.0 7.0 0.00 0.00 0.00 35 1009.3
20260501201545 62 287 1.0 5.0 0.00 0.00 0.00 38 1009.3
20260501201044 63 286 2.0 5.0 0.00 0.00 0.00 34 1009.2
20260501200544 64 334 1.0 6.0 0.00 0.00 0.00 38 1009.4
20260501200044 65 274 3.0 6.0 0.00 0.00 0.00 38 1009.4
20260501195544 64 331 3.0 5.0 0.00 0.00 0.00 35 1009.4
20260501195045 63 221 1.0 5.0 0.00 0.00 0.00 34 1009.4
20260501194543 65 217 2.0 5.0 0.00 0.00 0.00 33 1009.4
20260501194041 67 206 3.0 5.0 0.00 0.00 0.00 36 1009.4
20260501193542 66 293 1.0 4.0 0.00 0.00 0.00 31 1009.4
20260501193040 65 111 1.0 5.0 0.00 0.00 0.00 36 1009.6
20260501192539 67 77 1.0 5.0 0.00 0.00 0.00 42 1009.5
20260501192038 67 80 2.0 7.0 0.00 0.00 0.00 37 1009.4
20260501191537 67 96 1.0 5.0 0.00 0.00 0.00 36 1009.4
20260501191039 67 154 1.0 6.0 0.00 0.00 0.00 34 1009.5
20260501190535 67 164 2.0 6.0 0.00 0.00 0.00 34 1009.6
20260501190034 66 133 2.0 5.0 0.00 0.00 0.00 40 1009.9
20260501185534 63 177 1.0 6.0 0.00 0.00 0.00 41 1009.9
20260501185034 63 217 2.0 6.0 0.00 0.00 0.00 34 1010.0
20260501184536 66 180 1.0 6.0 0.00 0.00 0.00 40 1010.1
20260501184032 67 90 3.0 7.0 0.00 0.00 0.00 35 1010.1
20260501183532 67 98 2.0 9.0 0.00 0.00 0.00 34 1010.1
20260501183031 65 185 3.0 9.0 0.00 0.00 0.00 39 1010.0
20260501182529 65 173 2.0 6.0 0.00 0.00 0.00 42 1010.0
20260501182033 64 264 2.0 9.0 0.00 0.00 0.00 38 1010.1
20260501181527 63 250 2.0 10.0 0.00 0.00 0.00 36 1010.0
20260501181027 63 220 3.0 10.0 0.00 0.00 0.00 39 1010.2
20260501180527 64 197 1.0 10.0 0.00 0.00 0.00 35 1010.3
20260501180025 63 174 4.0 11.0 0.00 0.00 0.00 42 1010.4
20260501175524 64 242 5.0 10.0 0.00 0.00 0.00 40 1010.6
20260501175024 63 213 6.0 10.0 0.00 0.00 0.00 38 1010.5
20260501174523 64 251 4.0 11.0 0.00 0.00 0.00 38 1010.5
20260501174024 63 241 4.0 11.0 0.00 0.00 0.00 39 1010.6
20260501173522 63 209 2.0 7.0 0.00 0.00 0.00 40 1010.6
20260501173025 64 305 2.0 7.0 0.00 0.00 0.00 38 1010.6
20260501172521 62 262 1.0 7.0 0.00 0.00 0.00 41 1010.7
20260501172019 62 300 3.0 8.0 0.00 0.00 0.00 38 1010.8
20260501171524 62 290 4.0 8.0 0.00 0.00 0.00 38 1010.8
20260501171020 61 37 2.0 6.0 0.00 0.00 0.00 36 1010.8
20260501170519 62 333 2.0 6.0 0.00 0.00 0.00 45 1011.0
20260501170018 61 360 4.0 13.0 0.00 0.00 0.00 35 1010.8
20260501165518 60 5 4.0 13.0 0.00 0.00 0.00 37 1011.0
20260501165018 59 321 3.0 12.0 0.00 0.00 0.00 38 1011.2
20260501164518 61 360 2.0 10.0 0.00 0.00 0.00 44 1011.2
20260501164017 61 18 1.0 10.0 0.00 0.00 0.00 43 1011.2
20260501163517 60 327 2.0 13.0 0.00 0.00 0.00 42 1011.2
20260501163017 60 348 5.0 13.0 0.00 0.00 0.00 50 1011.2
20260501162516 60 234 6.0 11.0 0.00 0.00 0.00 46 1011.2
20260501162016 61 232 2.0 9.0 0.00 0.00 0.00 48 1011.1
20260501161516 60 161 4.0 10.0 0.00 0.00 0.00 55 1011.2
20260501161015 60 183 3.0 10.0 0.00 0.00 0.00 47 1011.4
20260501160515 61 41 2.0 10.0 0.00 0.00 0.00 44 1011.6
20260501160014 63 109 3.0 10.0 0.00 0.00 0.00 54 1011.4
20260501155515 59 92 3.0 8.0 0.00 0.00 0.00 60 1011.6
20260501155013 60 29 3.0 8.0 0.00 0.00 0.00 44 1011.7
20260501154513 60 146 2.0 8.0 0.00 0.00 0.00 50 1011.7
20260501154011 58 98 2.0 10.0 0.00 0.00 0.00 55 1011.8
20260501153511 58 182 2.0 10.0 0.00 0.00 0.00 52 1011.8
20260501153011 59 224 3.0 9.0 0.00 0.00 0.00 52 1011.7
20260501152512 57 163 3.0 7.0 0.00 0.00 0.00 50 1011.8